SEY261 VABB-FSIA

Flight info

Callsign SEY261
Flight time 3h 56m
Altitude 36000
Route VEVAK2A GUNDI B459 CLAVA UL441 PRA
Aircraft B77W/H-SDE1E2E3FGHIJ2J3J4J5M1RWXY/LB1D1

Departure

Time 2026-04-21 11:05
Airport Chhatrapati Shivaji Maharaj International Airport (VABB)

Arrival

Time 2026-04-21 15:01
Airport Seychelles International Airport (FSIA)
Time Latitude Longitude Altitude Speed Heading
2026-04-21 10:14 19.09338 72.87031 54 ft 0 kts 60°
2026-04-21 10:49 19.09331 72.87017 54 ft 4 kts 63°
2026-04-21 10:50 19.09320 72.86991 49 ft 4 kts 64°
2026-04-21 10:50 19.09310 72.86972 49 ft 4 kts 32°
2026-04-21 10:50 19.09292 72.86965 46 ft 4 kts
2026-04-21 10:50 19.09278 72.86966 50 ft 4 kts 318°
2026-04-21 10:51 19.09261 72.86986 47 ft 4 kts 313°
2026-04-21 10:51 19.09258 72.86991 47 ft 0 kts 315°
2026-04-21 10:54 19.09263 72.86985 50 ft 2 kts 315°
2026-04-21 10:55 19.09275 72.86973 50 ft 3 kts 315°
2026-04-21 10:55 19.09295 72.86952 47 ft 7 kts 316°
2026-04-21 10:55 19.09336 72.86910 50 ft 8 kts 316°
2026-04-21 10:55 19.09379 72.86866 50 ft 10 kts 316°
2026-04-21 10:56 19.09423 72.86815 50 ft 9 kts 297°
2026-04-21 10:56 19.09405 72.86752 49 ft 10 kts 232°
2026-04-21 10:56 19.09362 72.86698 48 ft 10 kts 229°
2026-04-21 10:56 19.09316 72.86643 51 ft 10 kts 225°
2026-04-21 10:57 19.09250 72.86635 51 ft 10 kts 144°
2026-04-21 10:57 19.09198 72.86689 48 ft 11 kts 135°
2026-04-21 10:57 19.09146 72.86744 51 ft 11 kts 134°
2026-04-21 10:57 19.09096 72.86799 48 ft 11 kts 133°
2026-04-21 10:58 19.09050 72.86848 51 ft 5 kts 129°
2026-04-21 10:58 19.09045 72.86890 50 ft 7 kts 89°
2026-04-21 10:58 19.09045 72.86946 55 ft 8 kts 90°
2026-04-21 10:58 19.09046 72.87005 55 ft 8 kts 89°
2026-04-21 10:59 19.09046 72.87064 53 ft 8 kts 89°
2026-04-21 10:59 19.09047 72.87123 51 ft 8 kts 89°
2026-04-21 10:59 19.09048 72.87182 51 ft 8 kts 89°
2026-04-21 10:59 19.09049 72.87241 50 ft 8 kts 89°
2026-04-21 11:00 19.09050 72.87300 50 ft 8 kts 89°
2026-04-21 11:00 19.09051 72.87359 50 ft 8 kts 89°
2026-04-21 11:00 19.09052 72.87418 49 ft 8 kts 89°
2026-04-21 11:00 19.09053 72.87477 49 ft 8 kts 89°
2026-04-21 11:01 19.09053 72.87537 49 ft 8 kts 89°
2026-04-21 11:01 19.09054 72.87595 48 ft 8 kts 89°
2026-04-21 11:01 19.09055 72.87654 48 ft 8 kts 89°
2026-04-21 11:02 19.09056 72.87772 48 ft 8 kts 89°
2026-04-21 11:02 19.09058 72.87831 48 ft 8 kts 89°
2026-04-21 11:02 19.09059 72.87890 51 ft 8 kts 89°
2026-04-21 11:02 19.09059 72.87949 53 ft 8 kts 89°
2026-04-21 11:03 19.09061 72.88008 53 ft 8 kts 89°
2026-04-21 11:03 19.09026 72.88047 52 ft 8 kts 164°
2026-04-21 11:03 19.08963 72.88051 50 ft 10 kts 181°
2026-04-21 11:03 19.08897 72.88032 50 ft 10 kts 226°
2026-04-21 11:04 19.08886 72.87963 47 ft 14 kts 270°
2026-04-21 11:04 19.08885 72.87704 47 ft 67 kts 269°
2026-04-21 11:04 19.08875 72.86957 52 ft 134 kts 269°
2026-04-21 11:04 19.08862 72.85801 85 ft 176 kts 270°
2026-04-21 11:05 19.08834 72.84496 585 ft 179 kts 271°
2026-04-21 11:05 19.08814 72.83208 1294 ft 177 kts 272°
2026-04-21 11:05 19.08802 72.81903 1920 ft 182 kts 272°
2026-04-21 11:05 19.08790 72.80481 2142 ft 207 kts 271°
2026-04-21 11:06 19.08768 72.78879 2381 ft 230 kts 270°
2026-04-21 11:06 19.08687 72.77116 2699 ft 246 kts 259°
2026-04-21 11:06 19.07858 72.75520 3200 ft 260 kts 223°
2026-04-21 11:06 19.06371 72.74361 3612 ft 272 kts 215°
2026-04-21 11:07 19.04782 72.73231 4273 ft 279 kts 215°
2026-04-21 11:07 19.03161 72.72076 4971 ft 283 kts 214°
2026-04-21 11:07 19.01546 72.70919 5706 ft 285 kts 215°
2026-04-21 11:07 18.99893 72.69725 6408 ft 289 kts 214°
2026-04-21 11:08 18.98236 72.68520 7167 ft 291 kts 215°
2026-04-21 11:08 18.96569 72.67298 7928 ft 292 kts 215°
2026-04-21 11:08 18.94899 72.66072 8675 ft 293 kts 215°
2026-04-21 11:08 18.93221 72.64833 9411 ft 296 kts 215°
2026-04-21 11:09 18.91526 72.63578 10085 ft 300 kts 215°
2026-04-21 11:09 18.89766 72.62274 10367 ft 321 kts 214°
2026-04-21 11:09 18.87896 72.60888 10570 ft 344 kts 215°
2026-04-21 11:09 18.85871 72.59386 10737 ft 368 kts 214°
2026-04-21 11:10 18.83740 72.57805 11239 ft 379 kts 214°
2026-04-21 11:10 18.81564 72.56190 11943 ft 386 kts 214°
2026-04-21 11:10 18.79373 72.54564 12973 ft 383 kts 214°
2026-04-21 11:10 18.77174 72.52934 13734 ft 390 kts 214°
2026-04-21 11:11 18.74943 72.51281 14487 ft 392 kts 215°
2026-04-21 11:11 18.72692 72.49614 15116 ft 400 kts 215°
2026-04-21 11:11 18.70407 72.47922 15887 ft 402 kts 216°
2026-04-21 11:11 18.68134 72.46237 16513 ft 409 kts 216°
2026-04-21 11:12 18.65791 72.44504 17194 ft 413 kts 216°
2026-04-21 11:12 18.63428 72.42757 17895 ft 418 kts 216°
2026-04-21 11:12 18.61034 72.40986 18507 ft 422 kts 216°
2026-04-21 11:12 18.58630 72.39208 19228 ft 423 kts 216°
2026-04-21 11:13 18.56217 72.37422 19899 ft 425 kts 216°
2026-04-21 11:13 18.53785 72.35627 20529 ft 429 kts 216°
2026-04-21 11:13 18.51338 72.33819 21197 ft 431 kts 216°
2026-04-21 11:13 18.48876 72.31998 21868 ft 433 kts 216°
2026-04-21 11:14 18.46430 72.30190 22472 ft 437 kts 216°
2026-04-21 11:14 18.43932 72.28345 23079 ft 440 kts 216°
2026-04-21 11:14 18.41414 72.26486 23642 ft 443 kts 216°
2026-04-21 11:14 18.39984 72.25431 23938 ft 444 kts 216°
2026-04-21 11:15 18.37663 72.23719 24231 ft 440 kts 216°
2026-04-21 11:15 18.35149 72.21866 24240 ft 442 kts 216°
2026-04-21 11:15 18.32630 72.20011 24254 ft 443 kts 216°
2026-04-21 11:15 18.30101 72.18147 24264 ft 444 kts 216°
2026-04-21 11:16 18.27566 72.16281 24270 ft 445 kts 216°
2026-04-21 11:16 18.25022 72.14409 24286 ft 446 kts 216°
2026-04-21 11:16 18.22476 72.12535 24301 ft 447 kts 215°
2026-04-21 11:16 18.19961 72.10685 24330 ft 447 kts 215°
2026-04-21 11:17 18.17411 72.08811 24354 ft 448 kts 215°
2026-04-21 11:17 18.14847 72.06926 24394 ft 448 kts 215°
2026-04-21 11:17 18.12269 72.05032 24483 ft 453 kts 215°
2026-04-21 11:17 18.09716 72.03157 24990 ft 454 kts 215°
2026-04-21 11:18 18.07116 72.01249 25604 ft 454 kts 215°
2026-04-21 11:18 18.04526 71.99348 26158 ft 455 kts 215°
2026-04-21 11:18 18.01925 71.97439 26597 ft 459 kts 215°
2026-04-21 11:18 17.99295 71.95510 27026 ft 462 kts 215°
2026-04-21 11:19 17.96653 71.93574 27480 ft 465 kts 215°
2026-04-21 11:19 17.94015 71.91640 27924 ft 467 kts 215°
2026-04-21 11:19 17.91336 71.89678 28317 ft 470 kts 215°
2026-04-21 11:19 17.88656 71.87715 28701 ft 473 kts 215°
2026-04-21 11:20 17.85941 71.85729 29085 ft 475 kts 215°
2026-04-21 11:20 17.83241 71.83753 29478 ft 477 kts 216°
2026-04-21 11:20 17.80523 71.81765 29979 ft 476 kts 216°
2026-04-21 11:20 17.77814 71.79784 30494 ft 472 kts 216°
2026-04-21 11:21 17.75159 71.77844 31096 ft 466 kts 216°
2026-04-21 11:21 17.72518 71.75915 31732 ft 460 kts 216°
2026-04-21 11:21 17.69871 71.73982 32322 ft 455 kts 216°
2026-04-21 11:21 17.67300 71.72105 32836 ft 452 kts 216°
2026-04-21 11:22 17.64723 71.70224 33338 ft 448 kts 216°
2026-04-21 11:22 17.62194 71.68379 33819 ft 445 kts 216°
2026-04-21 11:22 17.59654 71.66526 34188 ft 443 kts 216°
2026-04-21 11:22 17.57148 71.64699 34517 ft 442 kts 216°
2026-04-21 11:23 17.54641 71.62871 34854 ft 440 kts 216°
2026-04-21 11:23 17.52118 71.61033 35196 ft 438 kts 216°
2026-04-21 11:23 17.49624 71.59216 35512 ft 436 kts 215°
2026-04-21 11:23 17.47138 71.57406 35732 ft 437 kts 215°
2026-04-21 11:24 17.42118 71.53752 35788 ft 440 kts 215°
2026-04-21 11:24 17.37146 71.50135 35791 ft 435 kts 215°
2026-04-21 11:25 17.32253 71.46435 35794 ft 432 kts 217°
2026-04-21 11:25 17.27498 71.42609 35793 ft 432 kts 218°
2026-04-21 11:26 17.22741 71.38780 35795 ft 432 kts 218°
2026-04-21 11:26 17.17954 71.34961 35791 ft 434 kts 217°
2026-04-21 11:27 17.13154 71.31150 35795 ft 435 kts 217°
2026-04-21 11:27 17.08342 71.27334 35797 ft 436 kts 217°
2026-04-21 11:28 17.03486 71.23486 35813 ft 437 kts 217°
2026-04-21 11:28 16.98653 71.19659 35816 ft 438 kts 217°
2026-04-21 11:29 16.93771 71.15794 35797 ft 439 kts 217°
2026-04-21 11:29 16.88937 71.11970 35800 ft 439 kts 217°
2026-04-21 11:30 16.84081 71.08131 35816 ft 438 kts 217°
2026-04-21 11:30 16.79236 71.04304 35818 ft 438 kts 217°
2026-04-21 11:31 16.74376 71.00467 35800 ft 438 kts 217°
2026-04-21 11:31 16.69516 70.96631 35799 ft 438 kts 217°
2026-04-21 11:32 16.64652 70.92796 35801 ft 438 kts 217°
2026-04-21 11:32 16.59811 70.88980 35801 ft 438 kts 217°
2026-04-21 11:33 16.54941 70.85145 35819 ft 438 kts 217°
2026-04-21 11:33 16.50092 70.81342 35815 ft 438 kts 217°
2026-04-21 11:34 16.45196 70.77550 35810 ft 438 kts 217°
2026-04-21 11:34 16.40306 70.73770 35812 ft 439 kts 217°
2026-04-21 11:35 16.37777 70.71813 35816 ft 438 kts 217°
2026-04-21 11:35 16.32890 70.68031 35815 ft 439 kts 217°
2026-04-21 11:36 16.28011 70.64254 35818 ft 439 kts 217°
2026-04-21 11:36 16.23099 70.60455 35815 ft 439 kts 217°
2026-04-21 11:37 16.18207 70.56674 35799 ft 439 kts 217°
2026-04-21 11:37 16.13302 70.52886 35814 ft 440 kts 217°
2026-04-21 11:38 16.08409 70.49108 35819 ft 440 kts 217°
2026-04-21 11:38 16.03495 70.45317 35814 ft 440 kts 217°
2026-04-21 11:39 15.98592 70.41538 35818 ft 440 kts 217°
2026-04-21 11:39 15.93665 70.37741 35814 ft 440 kts 217°
2026-04-21 11:40 15.88761 70.33965 35816 ft 440 kts 217°
2026-04-21 11:40 15.83861 70.30195 35821 ft 440 kts 217°
2026-04-21 11:41 15.78930 70.26402 35820 ft 441 kts 217°
2026-04-21 11:41 15.74001 70.22614 35818 ft 441 kts 217°
2026-04-21 11:42 15.69075 70.18830 35816 ft 441 kts 217°
2026-04-21 11:42 15.64168 70.15064 35819 ft 441 kts 217°
2026-04-21 11:43 15.59220 70.11268 35819 ft 442 kts 217°
2026-04-21 11:43 15.54291 70.07489 35818 ft 442 kts 216°
2026-04-21 11:44 15.49346 70.03699 35822 ft 442 kts 217°
2026-04-21 11:44 15.44407 69.99918 35824 ft 442 kts 216°
2026-04-21 11:45 15.39482 69.96148 35823 ft 443 kts 216°
2026-04-21 11:45 15.34536 69.92365 35821 ft 443 kts 216°
2026-04-21 11:46 15.29575 69.88573 35825 ft 443 kts 216°
2026-04-21 11:46 15.24607 69.84777 35819 ft 444 kts 216°
2026-04-21 11:47 15.19628 69.80975 35824 ft 444 kts 216°
2026-04-21 11:47 15.14664 69.77186 35823 ft 445 kts 216°
2026-04-21 11:48 15.09674 69.73395 35827 ft 445 kts 216°
2026-04-21 11:48 15.04685 69.69674 35828 ft 445 kts 216°
2026-04-21 11:49 14.99667 69.65944 35823 ft 446 kts 216°
2026-04-21 11:49 14.94613 69.62182 35825 ft 446 kts 216°
2026-04-21 11:50 14.89607 69.58453 35826 ft 447 kts 216°
2026-04-21 11:50 14.84554 69.54689 35824 ft 447 kts 216°
2026-04-21 11:51 14.79523 69.50943 35824 ft 447 kts 216°
2026-04-21 11:51 14.74468 69.47183 35828 ft 447 kts 216°
2026-04-21 11:52 14.69427 69.43435 35831 ft 448 kts 216°
2026-04-21 11:52 14.64395 69.39696 35828 ft 448 kts 216°
2026-04-21 11:53 14.59330 69.35935 35831 ft 448 kts 216°
2026-04-21 11:53 14.54283 69.32189 35830 ft 449 kts 216°
2026-04-21 11:54 14.49188 69.28409 35828 ft 449 kts 216°
2026-04-21 11:54 14.44138 69.24665 35824 ft 449 kts 216°
2026-04-21 11:55 14.39052 69.20897 35829 ft 449 kts 216°
2026-04-21 11:55 14.33972 69.17135 35829 ft 450 kts 216°
2026-04-21 11:56 14.28915 69.13393 35829 ft 451 kts 216°
2026-04-21 11:56 14.23806 69.09613 35828 ft 451 kts 216°
2026-04-21 11:57 14.18739 69.05867 35832 ft 451 kts 216°
2026-04-21 11:57 14.13636 69.02095 35830 ft 452 kts 216°
2026-04-21 11:58 14.08536 68.98329 35833 ft 452 kts 216°
2026-04-21 11:58 14.03458 68.94498 35830 ft 452 kts 217°
2026-04-21 11:59 13.98416 68.90638 35831 ft 453 kts 217°
2026-04-21 11:59 13.94216 68.87425 35823 ft 453 kts 217°
2026-04-21 12:00 13.89158 68.83568 35828 ft 453 kts 217°
2026-04-21 12:00 13.84088 68.79708 35826 ft 453 kts 217°
2026-04-21 12:01 13.79004 68.75842 35829 ft 454 kts 217°
2026-04-21 12:01 13.73104 68.71358 35831 ft 454 kts 217°
2026-04-21 12:02 13.66308 68.66195 35831 ft 455 kts 217°
2026-04-21 12:03 13.61247 68.62353 35829 ft 455 kts 217°
2026-04-21 12:03 13.56136 68.58475 35831 ft 455 kts 217°
2026-04-21 12:04 13.51068 68.54632 35828 ft 456 kts 217°
2026-04-21 12:04 13.45961 68.50761 35830 ft 456 kts 217°
2026-04-21 12:05 13.40866 68.46901 35829 ft 455 kts 217°
2026-04-21 12:05 13.35864 68.43116 35815 ft 441 kts 217°
2026-04-21 12:06 13.30974 68.39416 35818 ft 433 kts 217°
2026-04-21 12:06 13.26202 68.35807 35817 ft 426 kts 217°
2026-04-21 12:07 13.21448 68.32213 35821 ft 420 kts 217°
2026-04-21 12:07 13.16793 68.28695 35822 ft 414 kts 217°
2026-04-21 12:08 13.12198 68.25225 35823 ft 410 kts 217°
2026-04-21 12:08 13.07642 68.21785 35824 ft 405 kts 217°
2026-04-21 12:09 13.03123 68.18375 35825 ft 402 kts 218°
2026-04-21 12:09 12.98627 68.14984 35820 ft 398 kts 218°
2026-04-21 12:10 12.94215 68.11658 35824 ft 395 kts 218°
2026-04-21 12:10 12.89810 68.08338 35828 ft 392 kts 218°
2026-04-21 12:11 12.85422 68.05032 35825 ft 390 kts 218°
2026-04-21 12:11 12.81085 68.01767 35825 ft 387 kts 218°
2026-04-21 12:12 12.76768 67.98481 35831 ft 385 kts 218°
2026-04-21 12:12 12.72498 67.95210 35828 ft 383 kts 218°
2026-04-21 12:13 12.68252 67.91960 35828 ft 381 kts 218°
2026-04-21 12:13 12.64048 67.88746 35826 ft 379 kts 218°
2026-04-21 12:14 12.59846 67.85536 35834 ft 377 kts 218°
2026-04-21 12:14 12.55657 67.82338 35831 ft 375 kts 218°
2026-04-21 12:15 12.51475 67.79146 35828 ft 373 kts 218°
2026-04-21 12:15 12.47264 67.75931 35850 ft 386 kts 218°
2026-04-21 12:16 12.42893 67.72596 35854 ft 401 kts 218°
2026-04-21 12:16 12.38357 67.69139 35855 ft 416 kts 218°
2026-04-21 12:17 12.33634 67.65540 35853 ft 430 kts 218°
2026-04-21 12:17 12.28768 67.61835 35851 ft 444 kts 218°
2026-04-21 12:18 12.23771 67.58032 35846 ft 456 kts 218°
2026-04-21 12:18 12.18631 67.54122 35847 ft 466 kts 218°
2026-04-21 12:19 12.13400 67.50145 35836 ft 467 kts 218°
2026-04-21 12:19 12.08212 67.46202 35834 ft 467 kts 218°
2026-04-21 12:20 12.03007 67.42247 35835 ft 467 kts 218°
2026-04-21 12:20 11.97798 67.38291 35835 ft 466 kts 218°
2026-04-21 12:21 11.92586 67.34370 35834 ft 466 kts 218°
2026-04-21 12:21 11.87359 67.30511 35837 ft 465 kts 218°
2026-04-21 12:22 11.82087 67.26626 35836 ft 465 kts 218°
2026-04-21 12:22 11.76895 67.22791 35842 ft 465 kts 218°
2026-04-21 12:23 11.71656 67.18918 35838 ft 465 kts 218°
2026-04-21 12:23 11.66406 67.15037 35841 ft 466 kts 218°
2026-04-21 12:24 11.61174 67.11171 35841 ft 466 kts 218°
2026-04-21 12:24 11.55911 67.07284 35836 ft 467 kts 218°
2026-04-21 12:25 11.50669 67.03416 35842 ft 468 kts 218°
2026-04-21 12:25 11.45385 66.99517 35842 ft 468 kts 218°
2026-04-21 12:26 11.40103 66.95623 35841 ft 469 kts 218°
2026-04-21 12:26 11.34833 66.91739 35840 ft 469 kts 218°
2026-04-21 12:27 11.29561 66.87856 35838 ft 470 kts 218°
2026-04-21 12:27 11.24276 66.83964 35842 ft 470 kts 218°
2026-04-21 12:28 11.18971 66.80060 35844 ft 471 kts 218°
2026-04-21 12:28 11.13665 66.76156 35844 ft 471 kts 218°
2026-04-21 12:29 11.08344 66.72244 35842 ft 472 kts 218°
2026-04-21 12:29 11.03018 66.68329 35843 ft 472 kts 218°
2026-04-21 12:30 10.97706 66.64427 35844 ft 472 kts 218°
2026-04-21 12:30 10.92408 66.60536 35843 ft 473 kts 218°
2026-04-21 12:31 10.87085 66.56629 35845 ft 473 kts 219°
2026-04-21 12:31 10.81720 66.52694 35839 ft 473 kts 219°
2026-04-21 12:32 10.76390 66.48785 35838 ft 474 kts 219°
2026-04-21 12:32 10.71041 66.44864 35840 ft 474 kts 219°
2026-04-21 12:33 10.65733 66.40976 35840 ft 475 kts 219°
2026-04-21 12:33 10.60357 66.37038 35843 ft 475 kts 219°
2026-04-21 12:34 10.54995 66.33113 35840 ft 475 kts 219°
2026-04-21 12:34 10.49652 66.29204 35841 ft 476 kts 219°
2026-04-21 12:35 10.44278 66.25273 35842 ft 476 kts 219°
2026-04-21 12:35 10.38920 66.21356 35840 ft 476 kts 219°
2026-04-21 12:36 10.33528 66.17416 35843 ft 477 kts 219°
2026-04-21 12:36 10.28170 66.13503 35844 ft 477 kts 219°
2026-04-21 12:37 10.22778 66.09565 35843 ft 478 kts 219°
2026-04-21 12:37 10.17375 66.05623 35845 ft 479 kts 219°
2026-04-21 12:38 10.11972 66.01681 35843 ft 479 kts 219°
2026-04-21 12:38 10.06563 65.97737 35844 ft 480 kts 219°
2026-04-21 12:39 10.01151 65.93792 35842 ft 480 kts 219°
2026-04-21 12:39 9.95718 65.89833 35842 ft 480 kts 219°
2026-04-21 12:40 9.90298 65.85886 35840 ft 481 kts 219°
2026-04-21 12:40 9.84866 65.81931 35842 ft 481 kts 219°
2026-04-21 12:41 9.79432 65.77977 35845 ft 482 kts 219°
2026-04-21 12:41 9.74025 65.74044 35840 ft 482 kts 219°
2026-04-21 12:42 9.68552 65.70064 35841 ft 483 kts 219°
2026-04-21 12:42 9.63091 65.66095 35840 ft 483 kts 219°
2026-04-21 12:43 9.57656 65.62146 35838 ft 484 kts 219°
2026-04-21 12:43 9.52192 65.58177 35842 ft 484 kts 219°
2026-04-21 12:44 9.46731 65.54214 35841 ft 485 kts 219°
2026-04-21 12:44 9.41253 65.50241 35841 ft 485 kts 219°
2026-04-21 12:45 9.35783 65.46274 35840 ft 486 kts 219°
2026-04-21 12:45 9.30291 65.42292 35840 ft 486 kts 219°
2026-04-21 12:46 9.24796 65.38308 35843 ft 486 kts 219°
2026-04-21 12:46 9.19319 65.34339 35835 ft 487 kts 219°
2026-04-21 12:47 9.13801 65.30342 35839 ft 487 kts 219°
2026-04-21 12:47 9.08303 65.26361 35841 ft 488 kts 219°
2026-04-21 12:48 9.02787 65.22369 35837 ft 488 kts 220°
2026-04-21 12:48 8.97229 65.18348 35835 ft 489 kts 220°
2026-04-21 12:49 8.91714 65.14359 35848 ft 489 kts 219°
2026-04-21 12:49 8.86193 65.10369 35850 ft 490 kts 220°
2026-04-21 12:50 8.80675 65.06381 35849 ft 490 kts 220°
2026-04-21 12:50 8.75101 65.02354 35836 ft 490 kts 220°
2026-04-21 12:51 8.69595 64.98378 35840 ft 491 kts 220°
2026-04-21 12:51 8.64025 64.94357 35845 ft 491 kts 220°
2026-04-21 12:52 8.58464 64.90345 35846 ft 491 kts 220°
2026-04-21 12:52 8.52929 64.86352 35847 ft 491 kts 220°
2026-04-21 12:53 8.47376 64.82348 35846 ft 492 kts 220°
2026-04-21 12:53 8.41816 64.78341 35843 ft 492 kts 220°
2026-04-21 12:54 8.36229 64.74315 35848 ft 492 kts 220°
2026-04-21 12:54 8.30655 64.70300 35848 ft 492 kts 219°
2026-04-21 12:55 8.25115 64.66311 35841 ft 493 kts 219°
2026-04-21 12:55 8.20932 64.63300 35843 ft 492 kts 220°
2026-04-21 12:56 8.15375 64.59301 35844 ft 492 kts 219°
2026-04-21 12:56 8.09805 64.55295 35842 ft 493 kts 219°
2026-04-21 12:57 8.04234 64.51289 35847 ft 493 kts 219°
2026-04-21 12:57 7.98666 64.47286 35843 ft 493 kts 219°
2026-04-21 12:58 7.93073 64.43267 35842 ft 493 kts 219°
2026-04-21 12:58 7.87468 64.39241 35843 ft 494 kts 219°
2026-04-21 12:59 7.81873 64.35223 35843 ft 494 kts 219°
2026-04-21 12:59 7.76283 64.31210 35843 ft 494 kts 219°
2026-04-21 13:00 7.70703 64.27206 35845 ft 494 kts 219°
2026-04-21 13:00 7.65129 64.23208 35842 ft 494 kts 219°
2026-04-21 13:01 7.59537 64.19197 35845 ft 494 kts 219°
2026-04-21 13:01 7.53922 64.15172 35852 ft 494 kts 219°
2026-04-21 13:02 7.48352 64.11180 35846 ft 494 kts 219°
2026-04-21 13:02 7.39927 64.05144 35847 ft 494 kts 219°
2026-04-21 13:03 7.34363 64.01160 35844 ft 495 kts 219°
2026-04-21 13:03 7.28735 63.97130 35841 ft 495 kts 219°
2026-04-21 13:04 7.23154 63.93136 35847 ft 495 kts 219°
2026-04-21 13:04 7.17536 63.89116 35847 ft 495 kts 219°
2026-04-21 13:05 7.11903 63.85087 35846 ft 496 kts 219°
2026-04-21 13:05 7.07712 63.82090 35846 ft 496 kts 219°
2026-04-21 13:06 7.02105 63.78081 35849 ft 496 kts 219°
2026-04-21 13:06 6.96451 63.74039 35848 ft 496 kts 219°
2026-04-21 13:07 6.90839 63.70031 35845 ft 497 kts 219°
2026-04-21 13:07 6.85207 63.66011 35848 ft 497 kts 219°
2026-04-21 13:08 6.79578 63.61995 35845 ft 497 kts 219°
2026-04-21 13:08 6.73931 63.57966 35846 ft 498 kts 219°
2026-04-21 13:09 6.68311 63.53956 35845 ft 498 kts 219°
2026-04-21 13:09 6.62645 63.49915 35845 ft 498 kts 219°
2026-04-21 13:10 6.57011 63.45898 35847 ft 498 kts 219°
2026-04-21 13:10 6.51380 63.41884 35846 ft 499 kts 219°
2026-04-21 13:11 6.45716 63.37848 35841 ft 499 kts 219°
2026-04-21 13:11 6.40048 63.33809 35856 ft 499 kts 219°
2026-04-21 13:12 6.34391 63.29780 35840 ft 499 kts 219°
2026-04-21 13:12 6.28744 63.25759 35841 ft 500 kts 219°
2026-04-21 13:13 6.23079 63.21726 35838 ft 500 kts 219°
2026-04-21 13:13 6.17421 63.17700 35850 ft 500 kts 219°
2026-04-21 13:14 6.11736 63.13656 35849 ft 500 kts 219°
2026-04-21 13:14 6.06042 63.09605 35851 ft 501 kts 219°
2026-04-21 13:15 6.00388 63.05585 35847 ft 501 kts 219°
2026-04-21 13:15 5.97513 63.03541 35848 ft 500 kts 219°
2026-04-21 13:16 5.91849 62.99515 35850 ft 501 kts 219°
2026-04-21 13:16 5.86140 62.95458 35845 ft 501 kts 219°
2026-04-21 13:17 5.80471 62.91430 35842 ft 502 kts 219°
2026-04-21 13:17 5.74762 62.87376 35844 ft 502 kts 219°
2026-04-21 13:18 5.69091 62.83348 35843 ft 503 kts 218°
2026-04-21 13:18 5.63361 62.79281 35846 ft 503 kts 218°
2026-04-21 13:19 5.57662 62.75236 35845 ft 503 kts 218°
2026-04-21 13:19 5.51949 62.71182 35843 ft 503 kts 218°
2026-04-21 13:20 5.46264 62.67149 35846 ft 503 kts 218°
2026-04-21 13:20 5.40547 62.63094 35844 ft 503 kts 218°
2026-04-21 13:21 5.34825 62.59037 35846 ft 503 kts 218°
2026-04-21 13:21 5.29110 62.54985 35843 ft 503 kts 218°
2026-04-21 13:22 5.23391 62.50932 35842 ft 503 kts 218°
2026-04-21 13:22 5.17712 62.46908 35845 ft 503 kts 218°
2026-04-21 13:23 5.11996 62.42857 35843 ft 503 kts 218°
2026-04-21 13:23 5.06306 62.38826 35841 ft 503 kts 218°
2026-04-21 13:24 5.00607 62.34790 35843 ft 502 kts 218°
2026-04-21 13:24 4.94965 62.30661 35842 ft 501 kts 220°
2026-04-21 13:25 4.89407 62.26463 35844 ft 501 kts 220°
2026-04-21 13:25 4.85215 62.23299 35848 ft 500 kts 220°
2026-04-21 13:26 4.79680 62.19147 35847 ft 500 kts 220°
2026-04-21 13:26 4.74104 62.14977 35845 ft 500 kts 220°
2026-04-21 13:27 4.68530 62.10811 35847 ft 500 kts 220°
2026-04-21 13:27 4.62973 62.06657 35844 ft 500 kts 220°
2026-04-21 13:28 4.57392 62.02484 35846 ft 500 kts 220°
2026-04-21 13:28 4.51823 61.98322 35846 ft 500 kts 220°
2026-04-21 13:29 4.46258 61.94163 35848 ft 500 kts 220°
2026-04-21 13:29 4.40713 61.90019 35845 ft 500 kts 220°
2026-04-21 13:30 4.35146 61.85861 35848 ft 500 kts 220°
2026-04-21 13:30 4.29510 61.81735 35846 ft 501 kts 219°
2026-04-21 13:31 4.23851 61.77673 35846 ft 501 kts 218°
2026-04-21 13:31 4.18205 61.73618 35847 ft 501 kts 219°
2026-04-21 13:32 4.12555 61.69545 35846 ft 501 kts 219°
2026-04-21 13:32 4.06897 61.65461 35847 ft 501 kts 219°
2026-04-21 13:33 4.01255 61.61387 35848 ft 501 kts 219°
2026-04-21 13:33 3.95611 61.57314 35846 ft 501 kts 219°
2026-04-21 13:34 3.89952 61.53231 35845 ft 501 kts 219°
2026-04-21 13:34 3.84300 61.49155 35848 ft 501 kts 219°
2026-04-21 13:35 3.78659 61.45086 35846 ft 501 kts 218°
2026-04-21 13:35 3.74888 61.42367 35846 ft 501 kts 218°
2026-04-21 13:36 3.70200 61.38987 35846 ft 501 kts 218°
2026-04-21 13:36 3.64555 61.34916 35846 ft 501 kts 218°
2026-04-21 13:37 3.58893 61.30835 35848 ft 501 kts 218°
2026-04-21 13:37 3.53259 61.26775 35849 ft 501 kts 218°
2026-04-21 13:38 3.47581 61.22683 35851 ft 501 kts 218°
2026-04-21 13:38 3.41934 61.18615 35846 ft 501 kts 218°
2026-04-21 13:39 3.36292 61.14551 35847 ft 501 kts 218°
2026-04-21 13:39 3.30655 61.10490 35846 ft 501 kts 218°
2026-04-21 13:40 3.25007 61.06423 35847 ft 501 kts 218°
2026-04-21 13:40 3.19353 61.02352 35850 ft 500 kts 218°
2026-04-21 13:41 3.13704 60.98285 35847 ft 500 kts 218°
2026-04-21 13:41 3.08096 60.94247 35847 ft 500 kts 218°
2026-04-21 13:42 3.02454 60.90186 35846 ft 499 kts 218°
2026-04-21 13:42 2.96813 60.86127 35847 ft 499 kts 218°
2026-04-21 13:43 2.91200 60.82088 35848 ft 499 kts 218°
2026-04-21 13:43 2.85546 60.78019 35846 ft 499 kts 218°
2026-04-21 13:44 2.79945 60.73990 35847 ft 499 kts 218°
2026-04-21 13:44 2.74308 60.69935 35846 ft 499 kts 218°
2026-04-21 13:45 2.68685 60.65891 35845 ft 499 kts 218°
2026-04-21 13:45 2.64003 60.62524 35847 ft 499 kts 218°
2026-04-21 13:46 2.58859 60.58825 35846 ft 498 kts 218°
2026-04-21 13:46 2.53229 60.54777 35847 ft 499 kts 217°
2026-04-21 13:47 2.47589 60.50722 35845 ft 499 kts 217°
2026-04-21 13:47 2.41948 60.46666 35847 ft 500 kts 217°
2026-04-21 13:48 2.36341 60.42636 35847 ft 500 kts 217°
2026-04-21 13:48 2.30702 60.38583 35848 ft 500 kts 217°
2026-04-21 13:49 2.25052 60.34523 35848 ft 500 kts 217°
2026-04-21 13:49 2.19402 60.30463 35846 ft 500 kts 217°
2026-04-21 13:50 2.13747 60.26400 35848 ft 500 kts 217°
2026-04-21 13:50 2.08131 60.22365 35849 ft 500 kts 217°
2026-04-21 13:51 2.02481 60.18306 35846 ft 500 kts 217°
2026-04-21 13:51 1.96834 60.14249 35844 ft 500 kts 217°
2026-04-21 13:52 1.91201 60.10203 35843 ft 500 kts 217°
2026-04-21 13:52 1.85568 60.06156 35842 ft 500 kts 218°
2026-04-21 13:53 1.79924 60.02102 35838 ft 499 kts 217°
2026-04-21 13:53 1.74277 59.98060 35844 ft 499 kts 217°
2026-04-21 13:54 1.68618 59.94068 35843 ft 500 kts 217°
2026-04-21 13:54 1.62945 59.90077 35843 ft 500 kts 217°
2026-04-21 13:55 1.57280 59.86083 35842 ft 500 kts 217°
2026-04-21 13:55 1.51595 59.82070 35842 ft 499 kts 217°
2026-04-21 13:56 1.45916 59.78060 35848 ft 499 kts 217°
2026-04-21 13:56 1.40267 59.74072 35843 ft 500 kts 217°
2026-04-21 13:57 1.34604 59.70075 35844 ft 500 kts 217°
2026-04-21 13:57 1.28921 59.66063 35844 ft 500 kts 217°
2026-04-21 13:58 1.23236 59.62051 35847 ft 499 kts 217°
2026-04-21 13:58 1.17598 59.58072 35843 ft 499 kts 217°
2026-04-21 13:59 1.11931 59.54073 35838 ft 499 kts 217°
2026-04-21 13:59 1.06264 59.50073 35846 ft 498 kts 217°
2026-04-21 14:00 1.00639 59.46104 35842 ft 498 kts 217°
2026-04-21 14:00 0.94981 59.42111 35846 ft 498 kts 217°
2026-04-21 14:01 0.89322 59.38119 35852 ft 498 kts 217°
2026-04-21 14:01 0.83665 59.34127 35846 ft 498 kts 217°
2026-04-21 14:02 0.78000 59.30130 35847 ft 498 kts 217°
2026-04-21 14:03 0.69501 59.24134 35846 ft 499 kts 217°
2026-04-21 14:03 0.63862 59.20156 35847 ft 499 kts 217°
2026-04-21 14:04 0.58207 59.16167 35848 ft 499 kts 217°
2026-04-21 14:04 0.52538 59.12168 35844 ft 499 kts 217°
2026-04-21 14:05 0.46860 59.08162 35847 ft 500 kts 217°
2026-04-21 14:05 0.41173 59.04150 35848 ft 500 kts 217°
2026-04-21 14:06 0.35539 59.00176 35846 ft 499 kts 217°
2026-04-21 14:06 0.29881 58.96185 35846 ft 499 kts 217°
2026-04-21 14:07 0.24203 58.92180 35847 ft 499 kts 217°
2026-04-21 14:07 0.18560 58.88199 35846 ft 499 kts 217°
2026-04-21 14:08 0.12878 58.84191 35847 ft 498 kts 217°
2026-04-21 14:08 0.07231 58.80208 35848 ft 498 kts 217°
2026-04-21 14:09 0.01594 58.76232 35849 ft 498 kts 217°
2026-04-21 14:09 -0.04050 58.72251 35848 ft 497 kts 217°
2026-04-21 14:10 -0.09723 58.68250 35849 ft 497 kts 217°
2026-04-21 14:10 -0.15355 58.64277 35852 ft 497 kts 217°
2026-04-21 14:11 -0.20974 58.60313 35852 ft 497 kts 217°
2026-04-21 14:11 -0.26630 58.56324 35853 ft 497 kts 217°
2026-04-21 14:12 -0.32256 58.52355 35854 ft 497 kts 217°
2026-04-21 14:12 -0.37890 58.48381 35851 ft 497 kts 217°
2026-04-21 14:13 -0.43539 58.44396 35852 ft 497 kts 217°
2026-04-21 14:13 -0.49191 58.40409 35853 ft 497 kts 217°
2026-04-21 14:14 -0.54841 58.36423 35851 ft 497 kts 217°
2026-04-21 14:14 -0.60493 58.32436 35853 ft 497 kts 217°
2026-04-21 14:15 -0.66109 58.28474 35852 ft 497 kts 217°
2026-04-21 14:15 -0.71759 58.24488 35854 ft 497 kts 217°
2026-04-21 14:16 -0.76007 58.21491 35853 ft 496 kts 217°
2026-04-21 14:16 -0.81645 58.17513 35855 ft 496 kts 217°
2026-04-21 14:17 -0.87251 58.13557 35854 ft 496 kts 217°
2026-04-21 14:17 -0.92890 58.09578 35858 ft 496 kts 217°
2026-04-21 14:18 -0.98529 58.05600 35856 ft 496 kts 217°
2026-04-21 14:18 -1.04168 58.01620 35858 ft 496 kts 217°
2026-04-21 14:19 -1.09763 57.97672 35859 ft 496 kts 217°
2026-04-21 14:19 -1.15412 57.93685 35857 ft 495 kts 217°
2026-04-21 14:20 -1.21025 57.89724 35858 ft 495 kts 217°
2026-04-21 14:20 -1.26653 57.85751 35858 ft 495 kts 217°
2026-04-21 14:21 -1.32234 57.81812 35856 ft 494 kts 217°
2026-04-21 14:21 -1.37842 57.77853 35857 ft 494 kts 217°
2026-04-21 14:22 -1.43456 57.73889 35857 ft 494 kts 217°
2026-04-21 14:22 -1.49077 57.69921 35859 ft 494 kts 217°
2026-04-21 14:23 -1.54645 57.65988 35862 ft 493 kts 217°
2026-04-21 14:23 -1.60264 57.62022 35863 ft 493 kts 217°
2026-04-21 14:24 -1.65867 57.58071 35862 ft 493 kts 217°
2026-04-21 14:24 -1.71462 57.54125 35863 ft 493 kts 217°
2026-04-21 14:25 -1.77035 57.50192 35865 ft 493 kts 217°
2026-04-21 14:25 -1.82644 57.46233 35863 ft 493 kts 217°
2026-04-21 14:26 -1.88249 57.42277 35861 ft 493 kts 217°
2026-04-21 14:26 -1.93843 57.38327 35864 ft 493 kts 217°
2026-04-21 14:27 -1.99434 57.34380 35862 ft 494 kts 217°
2026-04-21 14:27 -2.05045 57.30419 35863 ft 494 kts 217°
2026-04-21 14:28 -2.10644 57.26465 35863 ft 494 kts 217°
2026-04-21 14:28 -2.16240 57.22514 35864 ft 495 kts 217°
2026-04-21 14:29 -2.21880 57.18531 35864 ft 495 kts 217°
2026-04-21 14:29 -2.27464 57.14587 35864 ft 495 kts 217°
2026-04-21 14:30 -2.33090 57.10613 35864 ft 495 kts 217°
2026-04-21 14:30 -2.38715 57.06639 35866 ft 495 kts 217°
2026-04-21 14:31 -2.44344 57.02662 35866 ft 495 kts 217°
2026-04-21 14:31 -2.49271 56.99184 35850 ft 478 kts 217°
2026-04-21 14:32 -2.54778 56.95290 35879 ft 492 kts 217°
2026-04-21 14:32 -2.60422 56.91297 35872 ft 499 kts 217°
2026-04-21 14:33 -2.66103 56.87283 35864 ft 500 kts 217°
2026-04-21 14:33 -2.71744 56.83297 35864 ft 499 kts 217°
2026-04-21 14:34 -2.77400 56.79300 35863 ft 497 kts 217°
2026-04-21 14:34 -2.83032 56.75318 35864 ft 495 kts 217°
2026-04-21 14:35 -2.88643 56.71350 35865 ft 493 kts 217°
2026-04-21 14:35 -2.94203 56.67418 35863 ft 492 kts 217°
2026-04-21 14:36 -2.99783 56.63471 35864 ft 491 kts 217°
2026-04-21 14:36 -3.05361 56.59525 35866 ft 491 kts 217°
2026-04-21 14:37 -3.10937 56.55579 35867 ft 491 kts 217°
2026-04-21 14:37 -3.16480 56.51657 35867 ft 491 kts 217°
2026-04-21 14:38 -3.22064 56.47705 35868 ft 492 kts 217°
2026-04-21 14:38 -3.27647 56.43754 35867 ft 492 kts 217°
2026-04-21 14:39 -3.32292 56.40466 35866 ft 492 kts 217°
2026-04-21 14:39 -3.37878 56.36511 35866 ft 492 kts 217°
2026-04-21 14:40 -3.44369 56.31915 35865 ft 492 kts 217°
2026-04-21 14:40 -3.49012 56.28627 35865 ft 492 kts 217°
2026-04-21 14:41 -3.54589 56.24677 35866 ft 491 kts 217°
2026-04-21 14:41 -3.60169 56.20724 35867 ft 491 kts 218°
2026-04-21 14:42 -3.65741 56.16776 35866 ft 490 kts 218°
2026-04-21 14:42 -3.68515 56.14812 35759 ft 484 kts 218°
2026-04-21 14:42 -3.71242 56.12881 35428 ft 477 kts 218°
2026-04-21 14:42 -3.73914 56.10988 34731 ft 479 kts 218°
2026-04-21 14:43 -3.76642 56.09053 33997 ft 481 kts 218°
2026-04-21 14:43 -3.79370 56.07118 33280 ft 481 kts 218°
2026-04-21 14:43 -3.82097 56.05185 32718 ft 478 kts 218°
2026-04-21 14:43 -3.84808 56.03263 32323 ft 478 kts 218°
2026-04-21 14:44 -3.87503 56.01354 31973 ft 470 kts 218°
2026-04-21 14:44 -3.90154 55.99475 31544 ft 464 kts 218°
2026-04-21 14:44 -3.92780 55.97614 31046 ft 461 kts 218°
2026-04-21 14:44 -3.95356 55.95786 30493 ft 459 kts 218°
2026-04-21 14:45 -3.97957 55.93941 29958 ft 457 kts 218°
2026-04-21 14:45 -4.00543 55.92106 29402 ft 454 kts 218°
2026-04-21 14:45 -4.03106 55.90289 28899 ft 449 kts 218°
2026-04-21 14:45 -4.05639 55.88492 28407 ft 444 kts 218°
2026-04-21 14:46 -4.08149 55.86711 27909 ft 440 kts 218°
2026-04-21 14:46 -4.09463 55.85779 27578 ft 429 kts 217°
2026-04-21 14:46 -4.11867 55.84076 26568 ft 419 kts 217°
2026-04-21 14:46 -4.14228 55.82400 25422 ft 414 kts 217°
2026-04-21 14:47 -4.16568 55.80737 24278 ft 410 kts 217°
2026-04-21 14:47 -4.18850 55.79116 23187 ft 406 kts 217°
2026-04-21 14:47 -4.21111 55.77511 22446 ft 389 kts 216°
2026-04-21 14:47 -4.23263 55.75984 21950 ft 368 kts 216°
2026-04-21 14:48 -4.25299 55.74539 21429 ft 351 kts 216°
2026-04-21 14:48 -4.27257 55.73148 20831 ft 339 kts 216°
2026-04-21 14:48 -4.29154 55.71802 20139 ft 331 kts 216°
2026-04-21 14:48 -4.30856 55.70287 19349 ft 326 kts 233°
2026-04-21 14:49 -4.31957 55.68322 18545 ft 323 kts 246°
2026-04-21 14:49 -4.32892 55.66280 17733 ft 321 kts 245°
2026-04-21 14:49 -4.33826 55.64295 16931 ft 318 kts 244°
2026-04-21 14:49 -4.34773 55.62309 16176 ft 313 kts 244°
2026-04-21 14:50 -4.35708 55.60361 15434 ft 309 kts 244°
2026-04-21 14:50 -4.36637 55.58432 14703 ft 306 kts 244°
2026-04-21 14:50 -4.37557 55.56524 13992 ft 303 kts 244°
2026-04-21 14:50 -4.38469 55.54635 13236 ft 300 kts 244°
2026-04-21 14:51 -4.39372 55.52767 12475 ft 296 kts 244°
2026-04-21 14:51 -4.40265 55.50919 11766 ft 292 kts 244°
2026-04-21 14:51 -4.41144 55.49100 11065 ft 289 kts 244°
2026-04-21 14:51 -4.42231 55.47472 10343 ft 285 kts 221°
2026-04-21 14:52 -4.43925 55.46506 9618 ft 281 kts 195°
2026-04-21 14:52 -4.45817 55.46272 9120 ft 267 kts 180°
2026-04-21 14:52 -4.47602 55.46250 8896 ft 247 kts 184°
2026-04-21 14:52 -4.49182 55.45753 8705 ft 236 kts 216°
2026-04-21 14:53 -4.50211 55.44543 8540 ft 226 kts 248°
2026-04-21 14:53 -4.50410 55.43028 8289 ft 218 kts 282°
2026-04-21 14:53 -4.49754 55.41728 8047 ft 208 kts 316°
2026-04-21 14:53 -4.48511 55.41019 7628 ft 208 kts 343°
2026-04-21 14:54 -4.47122 55.40658 7292 ft 208 kts 347°
2026-04-21 14:54 -4.45720 55.40336 7007 ft 206 kts 347°
2026-04-21 14:54 -4.44320 55.40175 6645 ft 203 kts 11°
2026-04-21 14:54 -4.43085 55.40798 6259 ft 201 kts 48°
2026-04-21 14:55 -4.42467 55.42023 5882 ft 199 kts 77°
2026-04-21 14:55 -4.42229 55.43393 5546 ft 199 kts 81°
2026-04-21 14:55 -4.42204 55.44767 5136 ft 200 kts 108°
2026-04-21 14:55 -4.43057 55.45809 4683 ft 202 kts 154°
2026-04-21 14:56 -4.44470 55.46067 3960 ft 217 kts 179°
2026-04-21 14:56 -4.45176 55.46073 3759 ft 215 kts 179°
2026-04-21 14:56 -4.46632 55.46110 3703 ft 191 kts 178°
2026-04-21 14:56 -4.47906 55.46156 3623 ft 184 kts 177°
2026-04-21 14:57 -4.49208 55.46212 3536 ft 189 kts 177°
2026-04-21 14:57 -4.50536 55.46273 3355 ft 193 kts 177°
2026-04-21 14:57 -4.51857 55.46331 3137 ft 186 kts 178°
2026-04-21 14:57 -4.53139 55.46344 2917 ft 184 kts 180°
2026-04-21 14:58 -4.54412 55.46348 2712 ft 179 kts 179°
2026-04-21 14:58 -4.55625 55.46354 2467 ft 170 kts 179°
2026-04-21 14:58 -4.56772 55.46361 2244 ft 166 kts 179°
2026-04-21 14:58 -4.57927 55.46366 2046 ft 166 kts 179°
2026-04-21 14:59 -4.59082 55.46368 1804 ft 166 kts 179°
2026-04-21 14:59 -4.60238 55.46381 1524 ft 166 kts 177°
2026-04-21 14:59 -4.61379 55.46437 1229 ft 162 kts 172°
2026-04-21 14:59 -4.62475 55.46613 1202 ft 160 kts 165°
2026-04-21 15:00 -4.63537 55.46988 1138 ft 161 kts 150°
2026-04-21 15:00 -4.64395 55.47716 988 ft 166 kts 127°
2026-04-21 15:00 -4.64992 55.48661 823 ft 159 kts 119°
2026-04-21 15:00 -4.65587 55.49611 513 ft 162 kts 123°
2026-04-21 15:01 -4.66249 55.50479 233 ft 154 kts 128°
2026-04-21 15:01 -4.66858 55.51341 52 ft 155 kts 124°
2026-04-21 15:01 -4.67445 55.52197 28 ft 136 kts 124°
2026-04-21 15:01 -4.67807 55.52721 28 ft 48 kts 123°
2026-04-21 15:02 -4.67995 55.52992 27 ft 39 kts 124°
2026-04-21 15:02 -4.68121 55.53149 27 ft 26 kts 155°
2026-04-21 15:02 -4.68255 55.53183 29 ft 13 kts 147°
2026-04-21 15:02 -4.68273 55.53225 25 ft 2 kts 72°
2026-04-21 15:03 -4.68252 55.53248 27 ft 7 kts 34°
2026-04-21 15:03 -4.68206 55.53262 26 ft 7 kts 358°
2026-04-21 15:03 -4.68157 55.53223 27 ft 14 kts 309°
2026-04-21 15:03 -4.68079 55.53111 27 ft 24 kts 304°
2026-04-21 15:04 -4.67971 55.52952 27 ft 30 kts 304°
2026-04-21 15:04 -4.67845 55.52769 29 ft 34 kts 304°
2026-04-21 15:04 -4.67704 55.52568 28 ft 37 kts 305°
2026-04-21 15:04 -4.67557 55.52354 29 ft 39 kts 304°
2026-04-21 15:05 -4.67407 55.52137 28 ft 35 kts 305°
2026-04-21 15:05 -4.67157 55.51773 26 ft 30 kts 303°
2026-04-21 15:05 -4.67040 55.51600 27 ft 30 kts 304°
2026-04-21 15:06 -4.66935 55.51449 31 ft 15 kts 305°
2026-04-21 15:06 -4.66900 55.51379 26 ft 10 kts 269°
2026-04-21 15:06 -4.66936 55.51338 29 ft 8 kts 209°
2026-04-21 15:06 -4.66982 55.51308 30 ft 8 kts 218°
2026-04-21 15:07 -4.67016 55.51275 28 ft 7 kts 224°
2026-04-21 15:07 -4.67052 55.51245 30 ft 7 kts 215°
2026-04-21 15:07 -4.67070 55.51233 25 ft 1 kts 215°
2026-04-21 15:07 -4.67074 55.51230 31 ft 1 kts 215°
2026-04-21 15:08 -4.67076 55.51228 28 ft 0 kts 215°